map of SBZ home
SBZ - Airport
Location
City:  Sibiu, Sibiu, Romania
ICAO:LRSB
IATA:SBZ

Details
Type:Airport (Aerodrome, Airfield)
Use:Public/Civil
Latitude:4547'09"N (45.785800)
Longitude:2405'08"E (24.085583)
Elevation:1520 ft (463 m)
Variation:5.57E (WMM2015 magnetic declination)
0.11 annual change
Runways:1
Longest:8629 × 148 ft (2630 × 45 m)

Time
Time Zone:UTC+2 (DST+3)
Local Time:

Weather
METAR:LRSB 120500Z 00000KT 9999 FEW054 SCT063 M05/M06 Q1015
TAF:LRSB 112300Z 1200/1224 VRB04KT 9999 BKN030
TEMPO 1200/1206 3000 BR BKN010
BECMG 1209/1211 5000 -SN BKN015 OVC030
TEMPO 1212/1216 1500 SN BKN005 OVC025
BECMG 1219/1221 9999 NSW BKN030

Related Locations
Nearby:
Farthest:CHT: 11424 mi / 18385 km
Waitangi [Tuuta], CIT, NZ

Find:

   beyond  
but within

Other Information
Maps:
NOTAMs:
Links:
Sources:

  
  • flag of Romania
  

Sectional Chart

Flight Planning
at skyvector.com

Satellite Image

Google Maps Satellite view

 

Copyright © 2004-2018 Karl L. Swartz. All rights reserved.
The Great Circle Mapper name and logo are trademarks of the Great Circle Mapper.
All other trademarks mentioned herein belong to their respective owners.
Please see credits for attibutions and further copyright information.

  Follow gcmap on Facebook Follow gcmap on Twitter Follow gcmap on Google+ GCmap on LinkedIn

hCard Microformat

Geo Microformat